Powrót do katalogu

STARLINK-35029

AktywnyŁącznośćSSO
NORAD 65445·PAYLOAD·🇺🇸 United States

Wystrzelony Sep 3, 2025 z Vandenberg Space Force Base

Loading…

Następne Przeloty (najbliższe 24 godziny)

TLE

ŚwieżeSource: CelesTrak SupGP

Epoka: Sep 14, 2026, 15:02 UTC

1 65445C 25194M   26257.62687500 -.00016418  00000+0 -50928-3 0  2576
2 65445  97.2836 107.3410 0001909  88.4918  26.6995 15.33470869    18

Śledź STARLINK-35029 w czasie rzeczywistym z AllMySat

Download on the App Store